Location: Vlissingen
(51.4500°N, 3.5830°E)
Time: 01:18:54
(UTC+01:00)

Tiangong - Visible Passes

Search period start: 09 December 2021 00:00
Search period end: 19 December 2021 00:00
Orbit: 379 x 385 km, 41.5° (Epoch: 08 December)

Date Brightness Start Highest point End Pass type
(mag) Time Alt. Az. Time Alt. Az. Time Alt. Az.
11 Dec 3.8 18:40:31 10° S 18:41:16 11° SSE 18:41:39 10° SSE visible
12 Dec 3.9 19:15:14 10° SSW 19:16:07 13° SSW 19:16:07 13° SSW visible
13 Dec 3.7 18:15:09 10° SSW 18:16:37 13° S 18:18:05 10° SE visible
14 Dec 4.0 17:15:36 10° S 17:16:18 11° SSE 17:17:00 10° SSE visible
14 Dec 3.6 18:50:32 10° SW 18:52:16 14° S 18:52:53 13° SSE visible
15 Dec 3.8 17:50:11 10° SSW 17:51:54 14° S 17:53:36 10° SE visible
15 Dec 4.1 19:26:50 10° SSW 19:27:23 11° SSW 19:27:23 11° SSW visible
16 Dec 3.8 18:25:56 10° SW 18:27:30 13° S 18:29:04 10° SSE visible
17 Dec 3.9 17:25:22 10° SW 17:27:06 14° S 17:28:51 10° SSE visible
18 Dec 4.1 18:01:34 10° SSW 18:02:39 11° SSW 18:03:44 10° S visible
